Weather History for Budapest Ferihegy, Hungary

Change the Weather History Date:

Monday, January 7, 2013

  Actual Average Record
Temperature  
Mean Temperature 31 °F -  
Max Temperature 39 °F 36 °F 53 °F (2007)
Min Temperature 21 °F 22 °F 5 °F (2004)
Degree Days  
Heating Degree Days 34    
Moisture  
Dew Point 25 °F    
Average Humidity 82    
Maximum Humidity 100    
Minimum Humidity 52    
Precipitation  
Precipitation 0.00 in - - ()
Sea Level Pressure  
Sea Level Pressure 30.23 in    
Wind  
Wind Speed 5 mph ()    
Max Wind Speed 9 mph    
Max Gust Speed -    
Visibility 6.2 miles    
Events      
Averages and records for this station are not official NWS values.
T = Trace of Precipitation, MM = Missing Value Source: Averaged Metar Reports

Daily Weather History Graph

Daily Weather History Graph

Search for Another Location

Airport:

Trip Planner

Search our weather history database for the weather conditions in past years. The results will help you decide how hot, cold, wet, or windy it might be!

Date:

Astronomy

Jan. 07, 2013 Rise Set
Actual Time 7:29 AM CET 4:09 PM CET
Civil Twilight 6:54 AM CET 4:44 PM CET
Nautical Twilight 6:15 AM CET 5:23 PM CET
Astronomical Twilight 5:38 AM CET 6:00 PM CET
Moon 2:26 AM CET (1/7) 12:11 PM CET (1/7)
Length of Visible Light 9h 50m
Length of Day
8h 39m
Waning Crescent, 25% of the Moon is Illuminated
Jan 7
Waning Crescent
Jan 11
New
Jan 19
First Quarter
Jan 27
Full
Feb 3
Last Quarter

Hourly Weather History & Observations

Time (CET) Temp. Windchill Dew Point Humidity Pressure Visibility Wind Dir Wind Speed Gust Speed Precip Events Conditions
12:00 AM 33.8 °F 26.4 °F 33.8 °F 100% 30.01 in 6.2 mi NNE 9.2 mph - N/A   Overcast
12:30 AM 33.8 °F 27.0 °F 33.8 °F 100% 30.01 in 6.2 mi North 8.1 mph - N/A   Overcast
1:00 AM 33.8 °F 27.7 °F 33.8 °F 100% 30.01 in 6.2 mi North 6.9 mph - N/A   Mostly Cloudy
1:30 AM 33.8 °F 26.4 °F 33.8 °F 100% 30.04 in 6.2 mi North 9.2 mph - N/A   Mostly Cloudy
2:00 AM 33.8 °F 27.7 °F 32.0 °F 93% 30.04 in 6.2 mi NNW 6.9 mph - N/A   Mostly Cloudy
2:30 AM 33.8 °F 27.7 °F 33.8 °F 100% 30.04 in 6.2 mi North 6.9 mph - N/A   Mostly Cloudy
3:00 AM 32.0 °F 26.4 °F 32.0 °F 100% 30.04 in 6.2 mi ENE 5.8 mph - N/A   Mostly Cloudy
3:30 AM 32.0 °F 27.5 °F 32.0 °F 100% 30.06 in 6.2 mi NNE 4.6 mph - N/A   Mostly Cloudy
4:00 AM 32.0 °F - 32.0 °F 100% 30.06 in 6.2 mi Calm Calm - N/A   Scattered Clouds
4:30 AM 32.0 °F - 32.0 °F 100% 30.09 in 6.2 mi Variable 2.3 mph - N/A   Mostly Cloudy
5:00 AM 30.2 °F 25.4 °F 30.2 °F 100% 30.09 in 6.2 mi North 4.6 mph - N/A   Mostly Cloudy
5:30 AM 32.0 °F 26.4 °F 30.2 °F 93% 30.12 in 6.2 mi NNE 5.8 mph - N/A   Scattered Clouds
6:00 AM 30.2 °F 24.3 °F 28.4 °F 93% 30.12 in 6.2 mi North 5.8 mph - N/A   Mostly Cloudy
6:30 AM 30.2 °F 25.4 °F 28.4 °F 93% 30.15 in 6.2 mi North 4.6 mph - N/A   Mostly Cloudy
7:00 AM 30.2 °F - 28.4 °F 93% 30.15 in 6.2 mi Variable 2.3 mph - N/A   Mostly Cloudy
7:30 AM 30.2 °F - 26.6 °F 86% 30.18 in 6.2 mi Calm Calm - N/A   Mostly Cloudy
8:00 AM 30.2 °F 26.7 °F 24.8 °F 80% 30.18 in 6.2 mi Variable 3.5 mph - N/A   Partly Cloudy
8:30 AM 28.4 °F - 24.8 °F 86% 30.21 in 6.2 mi Variable 2.3 mph - N/A   Scattered Clouds
9:00 AM 28.4 °F - 24.8 °F 86% 30.21 in 6.2 mi Variable 1.2 mph - N/A   Mostly Cloudy
9:30 AM 30.2 °F 26.7 °F 26.6 °F 86% 30.21 in 6.2 mi Variable 3.5 mph - N/A   Scattered Clouds
10:00 AM 32.0 °F - 26.6 °F 80% 30.24 in 6.2 mi Variable 2.3 mph - N/A   Mostly Cloudy
10:30 AM 33.8 °F 29.6 °F 24.8 °F 70% 30.24 in 6.2 mi SE 4.6 mph - N/A   Scattered Clouds
11:00 AM 32.0 °F 28.7 °F 23.0 °F 69% 30.27 in 6.2 mi Variable 3.5 mph - N/A   Mostly Cloudy
11:30 AM 33.8 °F - 23.0 °F 65% 30.27 in 6.2 mi Variable 2.3 mph - N/A   Mostly Cloudy
12:00 PM 35.6 °F - 21.2 °F 56% 30.27 in 6.2 mi Variable 2.3 mph - N/A   Scattered Clouds
12:30 PM 39.2 °F - 23.0 °F 52% 30.27 in 6.2 mi Variable 1.2 mph - N/A   Scattered Clouds
1:00 PM 35.6 °F 32.8 °F 24.8 °F 65% 30.27 in 6.2 mi Variable 3.5 mph - N/A   Scattered Clouds
1:30 PM 33.8 °F 29.6 °F 23.0 °F 65% 30.27 in 6.2 mi SSW 4.6 mph - N/A   Scattered Clouds
2:00 PM 33.8 °F 29.6 °F 23.0 °F 65% 30.27 in 6.2 mi SSW 4.6 mph - N/A   Scattered Clouds
2:30 PM 37.4 °F - 23.0 °F 56% 30.27 in 6.2 mi Calm Calm - N/A   Partly Cloudy
3:00 PM 32.0 °F 27.5 °F 21.2 °F 64% 30.27 in 6.2 mi SSW 4.6 mph - N/A   Scattered Clouds
3:30 PM 32.0 °F 26.4 °F 21.2 °F 64% 30.30 in 6.2 mi SW 5.8 mph - N/A   Scattered Clouds
4:00 PM 28.4 °F 24.6 °F 19.4 °F 69% 30.30 in 6.2 mi Variable 3.5 mph - N/A   Scattered Clouds
4:30 PM 26.6 °F 22.6 °F 21.2 °F 80% 30.30 in 6.2 mi Variable 3.5 mph - N/A   Scattered Clouds
5:00 PM 23.0 °F - 19.4 °F 86% 30.30 in 6.2 mi Variable 2.3 mph - N/A   Scattered Clouds
5:30 PM 24.8 °F - 21.2 °F 86% 30.33 in 6.2 mi Variable 1.2 mph - N/A   Scattered Clouds
6:00 PM 26.6 °F 22.6 °F 24.8 °F 93% 30.33 in 6.2 mi Variable 3.5 mph - N/A   Scattered Clouds
6:30 PM 24.8 °F 15.3 °F 19.4 °F 80% 30.33 in 6.2 mi East 9.2 mph - N/A   Mostly Cloudy
7:00 PM 24.8 °F 16.9 °F 19.4 °F 80% 30.33 in 6.2 mi ESE 6.9 mph - N/A   Mostly Cloudy
7:30 PM 26.6 °F 18.2 °F 21.2 °F 80% 30.36 in 6.2 mi ESE 8.1 mph - N/A   Mostly Cloudy
8:00 PM 26.6 °F 20.0 °F 21.2 °F 80% 30.36 in 6.2 mi ESE 5.8 mph - N/A   Mostly Cloudy
8:30 PM 26.6 °F 18.2 °F 19.4 °F 74% 30.36 in 6.2 mi East 8.1 mph - N/A   Mostly Cloudy
9:00 PM 26.6 °F 18.2 °F 19.4 °F 74% 30.36 in 6.2 mi ESE 8.1 mph - N/A   Mostly Cloudy
9:30 PM 26.6 °F 19.1 °F 19.4 °F 74% 30.39 in 6.2 mi ESE 6.9 mph - N/A   Mostly Cloudy
10:00 PM 26.6 °F 18.2 °F 17.6 °F 69% 30.39 in 6.2 mi ESE 8.1 mph - N/A   Overcast
10:30 PM 24.8 °F 16.1 °F 17.6 °F 74% 30.39 in 6.2 mi SE 8.1 mph - N/A   Overcast
11:00 PM 23.0 °F 17.0 °F 15.8 °F 74% 30.39 in 6.2 mi ESE 4.6 mph - N/A   Mostly Cloudy
11:30 PM 21.2 °F 14.9 °F 15.8 °F 80% 30.39 in 6.2 mi SE 4.6 mph - N/A   Scattered Clouds